Record,Date/Time,10,Tamb(K),Rh(%),Pres(mb),Rain,Az(deg),El(deg),TkBB(K), 22.235, 23.035, 23.835, 26.235, 30.000,
     1,10/06/05 00:01:13,11,291.75, 88.20,1011.7,N,  0.00, 90.00,296.80, 76.48, 73.06, 60.07, 37.07, 24.83,
     2,10/06/05 00:02:14,11,291.65, 88.28,1011.5,N,  0.00, 90.00,296.82, 77.82, 73.96, 61.35, 38.47, 28.06,
     3,10/06/05 00:03:14,11,291.80, 87.54,1011.4,N,  0.00, 90.00,296.82, 78.43, 74.63, 61.45, 39.16, 27.23,
     4,10/06/05 00:04:14,11,291.85, 88.34,1011.4,N,  0.00, 90.00,296.83, 78.83, 74.84, 62.17, 39.55, 26.71,
     5,10/06/05 00:05:14,11,291.79, 88.03,1011.6,N,  0.00, 90.00,296.84, 77.72, 73.86, 61.20, 38.76, 27.37,
     6,10/06/05 00:06:14,11,291.74, 87.37,1011.6,N,  0.00, 90.00,296.83, 77.95, 74.38, 61.66, 38.90, 28.17,
     7,10/06/05 00:07:14,11,291.81, 86.19,1011.8,N,  0.00, 90.00,296.85, 77.66, 74.04, 61.20, 38.96, 27.23,
     8,10/06/05 00:08:14,11,291.78, 86.43,1011.4,N,  0.00, 90.00,296.88, 77.77, 73.88, 61.20, 38.01, 27.54,
     9,10/06/05 00:09:14,11,291.78, 86.68,1011.5,N,  0.00, 90.00,296.86, 77.93, 73.76, 61.36, 38.09, 26.89,
    10,10/06/05 00:10:14,11,291.91, 86.99,1011.5,N,  0.00, 90.00,296.87, 78.81, 75.12, 62.36, 40.33, 28.76,
    11,10/06/05 00:11:14,11,291.83, 88.41,1011.5,N,  0.00, 90.00,296.89, 80.46, 76.91, 64.45, 42.54, 31.73,
    12,10/06/05 00:12:14,11,291.59, 88.52,1011.2,N,  0.00, 90.00,296.89, 78.31, 73.61, 61.06, 38.31, 27.18,
    13,10/06/05 00:13:14,11,291.64, 89.44,1011.6,N,  0.00, 90.00,296.90, 78.46, 74.64, 62.10, 39.35, 27.85,
    14,10/06/05 00:14:14,11,291.62, 89.55,1011.5,N,  0.00, 90.00,296.91, 78.27, 74.36, 61.40, 39.01, 26.62,
    15,10/06/05 00:15:14,11,291.77, 89.73,1011.9,N,  0.00, 90.00,296.91, 77.06, 73.05, 60.53, 38.08, 25.01,
    16,10/06/05 00:16:14,11,291.66, 89.73,1011.8,N,  0.00, 90.00,296.92, 77.34, 73.80, 61.49, 38.19, 27.01,
    17,10/06/05 00:17:14,11,291.51, 89.43,1011.7,N,  0.00, 90.00,296.91, 78.15, 74.63, 62.13, 39.01, 28.01,
    18,10/06/05 00:18:14,11,291.62, 89.59,1012.3,N,  0.00, 90.00,296.92, 77.53, 73.86, 61.53, 38.31, 27.90,
    19,10/06/05 00:19:14,11,291.65, 89.56,1011.7,N,  0.00, 90.00,296.93, 78.22, 74.50, 62.45, 39.54, 27.35,
    20,10/06/05 00:20:14,11,291.62, 89.09,1011.4,N,  0.00, 90.00,296.92, 77.46, 73.38, 61.26, 38.49, 28.25,
    21,10/06/05 00:21:14,11,291.78, 89.04,1011.8,N,  0.00, 90.00,296.93, 77.08, 73.34, 60.83, 38.29, 25.78,
    22,10/06/05 00:22:14,11,291.66, 88.38,1012.1,N,  0.00, 90.00,296.93, 76.95, 72.95, 60.46, 37.59, 26.21,
    23,10/06/05 00:23:14,11,291.65, 87.95,1011.5,N,  0.00, 90.00,296.93, 77.50, 73.01, 60.92, 38.09, 26.57,
    24,10/06/05 00:24:14,11,291.74, 88.25,1012.0,N,  0.00, 90.00,296.94, 76.98, 73.27, 60.65, 38.33, 26.65,
    25,10/06/05 00:25:14,11,291.67, 89.00,1011.6,N,  0.00, 90.00,296.95, 77.35, 73.45, 60.96, 38.45, 26.21,
    26,10/06/05 00:26:14,11,291.65, 88.34,1011.7,N,  0.00, 90.00,296.94, 76.52, 72.41, 60.14, 37.32, 25.59,
    27,10/06/05 00:27:14,11,291.76, 88.70,1011.7,N,  0.00, 90.00,296.93, 77.42, 73.24, 60.89, 38.41, 27.36,
    28,10/06/05 00:28:14,11,291.79, 88.52,1011.8,N,  0.00, 90.00,296.95, 76.32, 72.32, 59.21, 36.02, 25.63,
    29,10/06/05 00:29:14,11,291.85, 88.33,1012.0,N,  0.00, 90.00,296.97, 76.50, 73.24, 60.58, 38.07, 26.14,
    30,10/06/05 00:30:14,11,291.76, 88.15,1012.1,N,  0.00, 90.00,296.97, 75.62, 72.31, 59.58, 36.77, 26.06,
    31,10/06/05 00:31:14,11,291.72, 86.50,1011.9,N,  0.00, 90.00,296.96, 77.05, 72.82, 60.42, 37.63, 26.58,
    32,10/06/05 00:32:14,11,291.73, 86.96,1012.2,N,  0.00, 90.00,296.98, 77.13, 73.36, 60.39, 37.40, 26.16,
    33,10/06/05 00:33:14,11,291.80, 86.42,1012.0,N,  0.00, 90.00,296.99, 76.33, 72.60, 60.37, 37.63, 25.63,
    34,10/06/05 00:34:14,11,291.87, 85.29,1012.1,N,  0.00, 90.00,296.98, 76.53, 72.88, 60.28, 37.70, 26.81,
    35,10/06/05 00:35:14,11,291.79, 85.28,1012.2,N,  0.00, 90.00,297.01, 76.64, 72.92, 59.80, 37.47, 25.67,
    36,10/06/05 00:36:14,11,291.92, 85.30,1012.2,N,  0.00, 90.00,297.01, 76.78, 72.51, 60.43, 37.18, 26.46,
    37,10/06/05 00:37:14,11,291.79, 85.58,1012.2,N,  0.00, 90.00,297.00, 75.71, 71.96, 60.05, 36.57, 25.21,
    38,10/06/05 00:38:14,11,291.83, 85.23,1012.0,N,  0.00, 90.00,297.01, 76.48, 73.04, 60.41, 38.09, 26.93,
    39,10/06/05 00:39:14,11,291.84, 85.33,1012.5,N,  0.00, 90.00,297.03, 76.63, 72.69, 60.75, 37.93, 26.94,
    40,10/06/05 00:40:14,11,291.92, 85.76,1012.2,N,  0.00, 90.00,297.01, 76.68, 72.94, 60.90, 38.00, 25.92,
    41,10/06/05 00:41:14,11,291.96, 85.68,1012.2,N,  0.00, 90.00,297.03, 77.02, 72.76, 60.29, 37.54, 26.26,
    42,10/06/05 00:42:14,11,291.89, 85.47,1012.1,N,  0.00, 90.00,297.03, 76.78, 73.10, 60.72, 38.12, 27.60,
    43,10/06/05 00:43:14,11,291.89, 84.90,1012.3,N,  0.00, 90.00,297.05, 76.50, 73.05, 60.16, 37.67, 26.40,
    44,10/06/05 00:44:14,11,291.87, 85.07,1012.3,N,  0.00, 90.00,297.04, 76.41, 72.68, 60.29, 37.60, 26.13,
    45,10/06/05 00:45:14,11,291.97, 85.63,1012.4,N,  0.00, 90.00,297.06, 76.48, 72.77, 60.09, 37.37, 26.74,
    46,10/06/05 00:46:14,11,291.86, 85.85,1012.5,N,  0.00, 90.00,297.07, 76.57, 73.26, 60.38, 37.52, 26.32,
    47,10/06/05 00:47:14,11,291.85, 84.84,1012.8,N,  0.00, 90.00,297.07, 76.58, 72.80, 60.77, 37.99, 26.95,
    48,10/06/05 00:48:14,11,291.88, 85.50,1012.1,N,  0.00, 90.00,297.07, 77.20, 73.14, 60.70, 38.24, 26.88,
    49,10/06/05 00:49:14,11,291.90, 84.83,1012.2,N,  0.00, 90.00,297.08, 76.90, 73.03, 60.70, 38.21, 27.03,
    50,10/06/05 00:50:14,11,291.91, 85.12,1012.6,N,  0.00, 90.00,297.09, 76.47, 72.70, 60.49, 38.06, 26.75,
    51,10/06/05 00:51:14,11,292.00, 86.04,1012.6,N,  0.00, 90.00,297.11, 76.64, 72.82, 60.46, 37.79, 27.25,
    52,10/06/05 00:52:14,11,291.94, 86.66,1012.5,N,  0.00, 90.00,297.11, 77.23, 73.58, 61.23, 38.67, 27.35,
    53,10/06/05 00:53:14,11,291.90, 86.29,1012.0,N,  0.00, 90.00,297.11, 77.23, 73.27, 61.21, 38.15, 27.38,
    54,10/06/05 00:54:14,11,291.92, 86.22,1012.3,N,  0.00, 90.00,297.12, 75.80, 71.95, 59.51, 36.61, 25.54,
    55,10/06/05 00:55:14,11,291.80, 85.31,1012.5,N,  0.00, 90.00,297.14, 76.21, 71.80, 59.84, 37.01, 24.75,
    56,10/06/05 00:56:14,11,291.91, 86.22,1012.2,N,  0.00, 90.00,297.14, 75.54, 71.33, 59.26, 36.14, 24.53,
    57,10/06/05 00:57:14,11,291.93, 86.51,1012.6,N,  0.00, 90.00,297.14, 76.19, 72.16, 59.69, 36.68, 24.50,
    58,10/06/05 00:58:14,11,291.99, 86.64,1012.5,N,  0.00, 90.00,297.14, 76.13, 71.75, 59.46, 36.31, 25.35,
    59,10/06/05 00:59:14,11,291.79, 85.73,1012.1,N,  0.00, 90.00,297.14, 75.43, 71.26, 59.26, 36.84, 24.29,
    60,10/06/05 01:00:14,11,291.86, 86.18,1012.3,N,  0.00, 90.00,297.15, 75.71, 71.87, 59.22, 36.29, 24.01,
    61,10/06/05 01:01:14,11,291.92, 86.66,1012.6,N,  0.00, 90.00,297.15, 75.99, 72.05, 60.06, 37.66, 26.26,
    62,10/06/05 01:02:14,11,291.92, 86.61,1012.4,N,  0.00, 90.00,297.16, 75.92, 72.67, 60.21, 37.12, 26.06,
    63,10/06/05 01:03:14,11,291.82, 85.66,1012.5,N,  0.00, 90.00,297.17, 75.63, 71.34, 59.79, 36.62, 24.66,
    64,10/06/05 01:04:14,11,291.95, 85.58,1012.7,N,  0.00, 90.00,297.17, 75.27, 71.70, 59.24, 36.43, 25.42,
    65,10/06/05 01:05:14,11,291.85, 85.53,1012.6,N,  0.00, 90.00,297.17, 75.23, 71.16, 58.77, 36.16, 24.15,
    66,10/06/05 01:06:14,11,291.89, 86.23,1012.8,N,  0.00, 90.00,297.17, 75.35, 72.01, 59.71, 36.85, 25.99,
    67,10/06/05 01:07:14,11,291.89, 86.98,1012.4,N,  0.00, 90.00,297.18, 75.61, 71.78, 59.62, 36.89, 25.62,
    68,10/06/05 01:08:14,11,291.86, 85.47,1012.8,N,  0.00, 90.00,297.18, 75.22, 71.35, 59.17, 36.12, 24.78,
    69,10/06/05 01:09:14,11,291.88, 85.60,1012.5,N,  0.00, 90.00,297.19, 75.90, 71.81, 59.76, 36.84, 25.39,
    70,10/06/05 01:10:14,11,292.00, 86.06,1012.6,N,  0.00, 90.00,297.18, 77.54, 74.00, 61.18, 40.05, 29.42,
    71,10/06/05 01:11:14,11,291.82, 87.81,1012.8,N,  0.00, 90.00,297.16, 75.87, 72.60, 60.34, 37.71, 27.87,
    72,10/06/05 01:12:14,11,291.72, 88.87,1012.7,N,  0.00, 90.00,297.16, 76.66, 73.58, 60.86, 38.79, 29.12,
    73,10/06/05 01:13:14,11,291.78, 90.00,1012.6,N,  0.00, 90.00,297.17, 76.12, 72.68, 60.75, 38.98, 27.38,
    74,10/06/05 01:14:14,11,291.61, 90.16,1012.6,N,  0.00, 90.00,297.17, 76.73, 73.59, 61.11, 39.58, 29.23,
    75,10/06/05 01:15:14,11,291.47, 89.15,1012.6,N,  0.00, 90.00,297.16, 77.01, 73.79, 61.67, 39.76, 29.93,
    76,10/06/05 01:16:14,11,291.52, 88.12,1012.4,N,  0.00, 90.00,297.16, 76.40, 72.99, 61.14, 39.10, 29.50,
    77,10/06/05 01:17:14,11,291.62, 88.00,1012.6,N,  0.00, 90.00,297.15, 76.90, 72.80, 61.17, 39.05, 29.12,
    78,10/06/05 01:18:14,11,291.71, 88.56,1012.7,N,  0.00, 90.00,297.14, 76.34, 72.64, 60.57, 38.79, 28.31,
    79,10/06/05 01:19:14,11,291.60, 89.61,1012.6,N,  0.00, 90.00,297.12, 75.73, 72.71, 60.60, 38.06, 26.56,
    80,10/06/05 01:20:14,11,291.57, 90.10,1012.5,N,  0.00, 90.00,297.11, 77.07, 73.59, 61.74, 39.88, 28.78,
    81,10/06/05 01:21:14,11,291.58, 89.90,1012.3,N,  0.00, 90.00,297.12, 77.76, 73.69, 61.86, 40.49, 31.73,
    82,10/06/05 01:22:14,11,291.57, 89.26,1012.7,N,  0.00, 90.00,297.09, 76.15, 73.28, 60.73, 38.90, 28.96,
    83,10/06/05 01:23:14,11,291.49, 89.60,1012.7,N,  0.00, 90.00,297.08, 76.88, 73.48, 60.87, 39.57, 28.15,
    84,10/06/05 01:24:14,11,291.58, 89.89,1013.2,N,  0.00, 90.00,297.07, 77.67, 73.54, 62.03, 40.38, 31.53,
    85,10/06/05 01:25:14,11,291.44, 88.30,1013.0,N,  0.00, 90.00,297.07, 76.45, 73.05, 61.40, 38.86, 28.16,
    86,10/06/05 01:26:14,11,291.43, 88.19,1012.9,N,  0.00, 90.00,297.05, 77.89, 74.72, 62.49, 40.34, 31.96,
    87,10/06/05 01:27:14,11,291.65, 88.45,1013.0,N,  0.00, 90.00,297.04, 77.27, 73.87, 62.28, 40.38, 30.73,
    88,10/06/05 01:28:14,11,291.50, 88.80,1013.5,N,  0.00, 90.00,297.04, 81.38, 78.19, 66.33, 46.23, 37.32,
    89,10/06/05 01:29:14,11,291.51, 89.15,1012.7,N,  0.00, 90.00,297.02, 78.62, 75.25, 63.36, 42.26, 32.70,
    90,10/06/05 01:30:14,11,291.52, 87.54,1012.9,N,  0.00, 90.00,297.01, 76.85, 73.07, 61.05, 39.98, 29.93,
    91,10/06/05 01:31:14,11,291.50, 87.19,1012.7,N,  0.00, 90.00,297.00, 76.78, 73.76, 62.12, 40.48, 30.31,
    92,10/06/05 01:32:14,11,291.63, 88.00,1013.2,N,  0.00, 90.00,296.98, 75.53, 72.27, 60.36, 37.88, 27.93,
    93,10/06/05 01:33:14,11,291.56, 88.13,1012.9,N,  0.00, 90.00,296.97, 76.12, 72.27, 59.58, 37.97, 27.35,
    94,10/06/05 01:34:14,11,291.69, 87.72,1012.9,N,  0.00, 90.00,296.95, 75.87, 72.28, 60.21, 37.89, 27.03,
    95,10/06/05 01:35:14,11,291.59, 86.72,1012.9,N,  0.00, 90.00,296.95, 74.93, 71.37, 59.40, 37.24, 26.59,
    96,10/06/05 01:36:14,11,291.62, 86.85,1013.0,N,  0.00, 90.00,296.94, 76.30, 73.22, 61.43, 39.91, 29.48,
    97,10/06/05 01:37:14,11,291.61, 86.98,1013.3,N,  0.00, 90.00,296.92, 77.18, 73.81, 61.66, 40.40, 30.42,
    98,10/06/05 01:38:14,11,291.72, 88.16,1013.1,N,  0.00, 90.00,296.90, 76.84, 73.05, 60.67, 38.73, 27.94,
    99,10/06/05 01:39:14,11,291.68, 88.66,1012.9,N,  0.00, 90.00,296.89, 76.94, 73.39, 61.19, 39.78, 28.64,
   100,10/06/05 01:40:14,11,291.65, 87.99,1013.2,N,  0.00, 90.00,296.89, 77.02, 73.23, 61.49, 39.78, 28.74,
   101,10/06/05 01:41:14,11,291.66, 86.73,1013.4,N,  0.00, 90.00,296.87, 75.70, 72.55, 60.23, 38.89, 28.13,
   102,10/06/05 01:42:14,11,291.67, 87.01,1013.1,N,  0.00, 90.00,296.86, 76.32, 73.17, 61.22, 39.69, 28.95,
   103,10/06/05 01:43:14,11,291.70, 86.23,1012.8,N,  0.00, 90.00,296.85, 75.81, 72.11, 60.36, 38.51, 27.77,
   104,10/06/05 01:44:14,11,291.76, 87.13,1013.1,N,  0.00, 90.00,296.84, 75.84, 71.95, 59.73, 38.06, 26.45,
   105,10/06/05 01:45:14,11,291.65, 86.51,1012.9,N,  0.00, 90.00,296.82, 75.58, 71.87, 59.62, 37.85, 27.39,
   106,10/06/05 01:46:14,11,291.67, 86.43,1013.3,N,  0.00, 90.00,296.81, 75.36, 71.64, 59.57, 37.45, 25.90,
   107,10/06/05 01:47:14,11,291.80, 87.30,1012.9,N,  0.00, 90.00,296.80, 75.23, 71.09, 59.11, 36.80, 25.34,
   108,10/06/05 01:48:14,11,291.64, 87.11,1013.1,N,  0.00, 90.00,296.79, 74.84, 71.46, 59.25, 37.24, 25.32,
   109,10/06/05 01:49:14,11,291.75, 86.15,1013.4,N,  0.00, 90.00,296.78, 74.59, 71.43, 59.60, 36.56, 25.57,
   110,10/06/05 01:50:14,11,291.77, 86.16,1013.1,N,  0.00, 90.00,296.76, 75.32, 71.87, 59.33, 38.11, 27.51,
   111,10/06/05 01:51:14,11,291.64, 86.35,1013.2,N,  0.00, 90.00,296.75, 74.66, 70.73, 58.80, 36.27, 24.39,
   112,10/06/05 01:52:14,11,291.68, 85.83,1013.0,N,  0.00, 90.00,296.73, 74.76, 71.24, 59.12, 36.85, 25.81,
   113,10/06/05 01:53:14,11,291.76, 86.37,1013.0,N,  0.00, 90.00,296.73, 76.09, 71.74, 60.13, 37.94, 27.69,
   114,10/06/05 01:54:14,11,291.92, 86.10,1013.1,N,  0.00, 90.00,296.73, 74.80, 71.18, 59.36, 37.27, 25.75,
   115,10/06/05 01:55:14,11,291.53, 89.01,1013.2,N,  0.00, 90.00,296.72, 75.38, 71.67, 59.53, 37.38, 26.10,
   116,10/06/05 01:56:14,11,291.69, 89.65,1013.0,N,  0.00, 90.00,296.71, 74.59, 70.89, 58.47, 36.05, 24.72,
   117,10/06/05 01:57:14,11,291.60, 89.71,1013.2,N,  0.00, 90.00,296.70, 75.10, 71.23, 59.21, 36.60, 25.34,
   118,10/06/05 01:58:14,11,291.60, 89.52,1013.3,N,  0.00, 90.00,296.69, 75.13, 71.57, 58.80, 36.61, 25.83,
   119,10/06/05 01:59:14,11,291.63, 88.63,1013.3,N,  0.00, 90.00,296.67, 76.26, 72.87, 60.42, 38.82, 28.84,
   120,10/06/05 02:00:14,11,291.58, 88.70,1013.3,N,  0.00, 90.00,296.67, 75.79, 72.35, 60.19, 38.08, 27.14,
   121,10/06/05 02:01:14,11,291.54, 88.31,1013.3,N,  0.00, 90.00,296.67, 75.93, 72.49, 60.40, 39.09, 28.33,
   122,10/06/05 02:02:14,11,291.64, 88.36,1013.5,N,  0.00, 90.00,296.67, 76.16, 73.07, 60.95, 39.68, 29.27,
   123,10/06/05 02:03:14,11,291.57, 88.88,1013.5,N,  0.00, 90.00,296.66, 75.50, 72.71, 60.41, 38.28, 27.99,
   124,10/06/05 02:04:14,11,291.61, 88.76,1013.4,N,  0.00, 90.00,296.66, 76.59, 72.82, 60.87, 39.28, 29.53,
   125,10/06/05 02:05:14,11,291.56, 88.03,1013.3,N,  0.00, 90.00,296.66, 76.57, 73.85, 62.43, 41.33, 31.37,
   126,10/06/05 02:06:14,11,291.65, 88.76,1013.5,N,  0.00, 90.00,296.65, 75.65, 72.26, 60.65, 38.52, 27.61,
   127,10/06/05 02:07:14,11,291.66, 88.39,1013.3,N,  0.00, 90.00,296.65, 75.01, 71.83, 59.37, 37.62, 27.37,
   128,10/06/05 02:08:14,11,291.66, 85.93,1013.1,N,  0.00, 90.00,296.64, 75.18, 72.58, 59.75, 37.67, 26.61,
   129,10/06/05 02:09:14,11,291.77, 84.27,1013.4,N,  0.00, 90.00,296.64, 75.00, 71.06, 59.44, 36.91, 26.43,
   130,10/06/05 02:10:14,11,291.88, 84.15,1013.3,N,  0.00, 90.00,296.64, 75.28, 71.37, 59.30, 37.28, 26.44,
   131,10/06/05 02:11:14,11,291.90, 83.95,1013.3,N,  0.00, 90.00,296.63, 74.82, 71.77, 59.20, 38.19, 26.37,
   132,10/06/05 02:12:14,11,291.87, 84.86,1013.8,N,  0.00, 90.00,296.63, 74.67, 71.15, 59.62, 38.03, 26.86,
   133,10/06/05 02:13:14,11,291.90, 84.55,1013.5,N,  0.00, 90.00,296.63, 75.48, 72.12, 59.77, 37.86, 27.14,
   134,10/06/05 02:14:14,11,291.83, 84.79,1013.6,N,  0.00, 90.00,296.62, 74.65, 71.08, 58.81, 36.34, 24.83,
   135,10/06/05 02:15:14,11,291.84, 84.96,1013.5,N,  0.00, 90.00,296.62, 75.81, 71.86, 60.11, 38.34, 27.26,
   136,10/06/05 02:16:14,11,292.01, 85.65,1013.9,N,  0.00, 90.00,296.61, 75.53, 72.21, 59.49, 38.13, 27.50,
   137,10/06/05 02:17:14,11,291.95, 85.39,1013.8,N,  0.00, 90.00,296.63, 74.69, 71.12, 59.04, 37.11, 25.94,
   138,10/06/05 02:18:14,11,291.88, 84.13,1013.6,N,  0.00, 90.00,296.62, 74.41, 71.06, 58.87, 36.82, 25.79,
   139,10/06/05 02:19:14,11,291.95, 84.27,1013.6,N,  0.00, 90.00,296.61, 74.90, 70.52, 58.83, 36.74, 25.24,
   140,10/06/05 02:20:14,11,291.88, 84.81,1013.6,N,  0.00, 90.00,296.62, 74.16, 70.24, 58.18, 35.82, 24.23,
   141,10/06/05 02:21:14,11,291.91, 84.88,1013.7,N,  0.00, 90.00,296.62, 74.58, 70.23, 58.25, 36.04, 25.24,
   142,10/06/05 02:22:13,11,291.93, 85.16,1013.5,N,  0.00, 90.00,296.61, 74.46, 69.92, 58.72, 36.11, 25.02,
   143,10/06/05 02:23:14,11,292.08, 85.05,1013.7,N,  0.00, 90.00,296.61, 73.44, 70.03, 57.88, 35.27, 24.50,
   144,10/06/05 02:24:14,11,291.99, 83.75,1013.4,N,  0.00, 90.00,296.63, 72.66, 69.53, 57.89, 35.01, 23.30,
   145,10/06/05 02:25:14,11,291.83, 83.58,1013.7,N,  0.00, 90.00,296.62, 73.24, 70.28, 57.85, 35.39, 24.18,
   146,10/06/05 02:26:14,11,291.94, 84.18,1013.6,N,  0.00, 90.00,296.61, 73.19, 69.86, 57.69, 35.60, 24.69,
   147,10/06/05 02:27:14,11,291.95, 84.27,1013.4,N,  0.00, 90.00,296.61, 72.93, 69.21, 57.49, 34.93, 23.08,
   148,10/06/05 02:28:14,11,291.91, 83.89,1013.7,N,  0.00, 90.00,296.63, 73.61, 69.55, 57.55, 35.10, 23.80,
   149,10/06/05 02:29:14,11,291.91, 83.67,1013.7,N,  0.00, 90.00,296.61, 73.00, 69.31, 57.34, 35.05, 24.19,
   150,10/06/05 02:30:14,11,291.90, 83.51,1013.6,N,  0.00, 90.00,296.61, 73.12, 69.84, 57.71, 35.46, 23.92,
   151,10/06/05 02:31:14,11,291.95, 83.75,1013.4,N,  0.00, 90.00,296.62, 73.44, 69.78, 56.91, 35.21, 23.59,
   152,10/06/05 02:32:14,11,291.98, 83.77,1013.6,N,  0.00, 90.00,296.62, 73.47, 70.53, 58.48, 36.42, 24.55,
   153,10/06/05 02:33:14,11,291.99, 84.92,1013.7,N,  0.00, 90.00,296.61, 73.50, 69.59, 57.31, 35.54, 24.96,
   154,10/06/05 02:34:14,11,291.94, 83.60,1013.6,N,  0.00, 90.00,296.62, 73.72, 70.35, 57.98, 35.66, 25.37,
   155,10/06/05 02:35:14,11,292.01, 84.03,1013.8,N,  0.00, 90.00,296.62, 72.99, 69.36, 57.20, 35.06, 23.55,
   156,10/06/05 02:36:14,11,291.91, 83.88,1013.9,N,  0.00, 90.00,296.61, 73.51, 69.73, 57.95, 36.02, 24.06,
   157,10/06/05 02:37:14,11,291.98, 84.26,1013.7,N,  0.00, 90.00,296.60, 73.21, 69.55, 57.15, 35.36, 23.62,
   158,10/06/05 02:38:14,11,292.02, 85.03,1013.7,N,  0.00, 90.00,296.62, 73.83, 70.31, 58.44, 36.20, 24.36,
   159,10/06/05 02:39:14,11,292.00, 85.39,1013.7,N,  0.00, 90.00,296.62, 72.52, 69.00, 56.93, 34.90, 23.48,
   160,10/06/05 02:40:14,11,291.86, 85.49,1014.1,N,  0.00, 90.00,296.61, 72.99, 69.25, 56.92, 34.83, 24.14,
   161,10/06/05 02:41:14,11,291.86, 84.11,1013.6,N,  0.00, 90.00,296.61, 72.30, 69.18, 56.76, 35.42, 23.37,
   162,10/06/05 02:42:14,11,292.01, 85.03,1013.8,N,  0.00, 90.00,296.62, 72.33, 68.80, 56.71, 34.66, 23.51,
   163,10/06/05 02:43:14,11,292.01, 85.20,1013.7,N,  0.00, 90.00,296.61, 73.01, 69.57, 57.16, 34.84, 23.47,
   164,10/06/05 02:44:14,11,291.93, 85.53,1013.8,N,  0.00, 90.00,296.62, 73.55, 69.60, 57.76, 34.82, 24.94,
   165,10/06/05 02:45:14,11,292.00, 83.79,1013.9,N,  0.00, 90.00,296.61, 73.38, 69.08, 57.78, 35.51, 24.92,
   166,10/06/05 02:46:14,11,292.00, 83.20,1013.8,N,  0.00, 90.00,296.62, 73.31, 69.81, 57.38, 35.56, 24.79,
   167,10/06/05 02:47:14,11,291.94, 83.90,1013.7,N,  0.00, 90.00,296.61, 73.48, 69.60, 57.26, 35.34, 23.51,
   168,10/06/05 02:48:14,11,291.92, 84.68,1013.9,N,  0.00, 90.00,296.63, 72.76, 69.31, 56.61, 34.44, 23.52,
   169,10/06/05 02:49:14,11,291.94, 84.21,1014.4,N,  0.00, 90.00,296.62, 72.98, 70.04, 57.98, 35.14, 24.22,
   170,10/06/05 02:50:14,11,291.95, 84.57,1014.0,N,  0.00, 90.00,296.62, 73.26, 69.27, 57.61, 35.05, 23.89,
   171,10/06/05 02:51:14,11,291.97, 85.20,1014.1,N,  0.00, 90.00,296.63, 73.36, 69.07, 57.75, 35.21, 23.26,
   172,10/06/05 02:52:14,11,291.87, 83.33,1013.7,N,  0.00, 90.00,296.61, 72.95, 69.30, 57.40, 35.41, 24.65,
   173,10/06/05 02:53:14,11,291.86, 84.06,1013.8,N,  0.00, 90.00,296.62, 72.81, 68.94, 57.38, 34.98, 23.52,
   174,10/06/05 02:54:14,11,292.02, 83.36,1014.3,N,  0.00, 90.00,296.62, 73.55, 69.89, 58.10, 35.91, 24.95,
   175,10/06/05 02:55:14,11,291.94, 83.14,1013.8,N,  0.00, 90.00,296.61, 74.11, 70.48, 58.52, 36.76, 26.33,
   176,10/06/05 02:56:14,11,291.91, 83.40,1014.0,N,  0.00, 90.00,296.61, 74.24, 70.41, 58.18, 36.75, 26.05,
   177,10/06/05 02:57:14,11,291.96, 82.50,1014.5,N,  0.00, 90.00,296.62, 73.77, 70.31, 58.46, 36.12, 25.21,
   178,10/06/05 02:58:14,11,291.94, 83.52,1014.1,N,  0.00, 90.00,296.61, 73.93, 69.99, 57.87, 36.09, 25.22,
   179,10/06/05 02:59:14,11,291.96, 83.38,1014.1,N,  0.00, 90.00,296.62, 73.63, 69.81, 57.78, 36.15, 24.98,
   180,10/06/05 03:00:14,11,291.94, 84.00,1014.3,N,  0.00, 90.00,296.62, 74.06, 70.37, 58.07, 36.07, 24.60,
   181,10/06/05 03:01:14,11,291.90, 84.29,1014.2,N,  0.00, 90.00,296.63, 73.46, 69.58, 57.43, 35.32, 23.91,
   182,10/06/05 03:02:14,11,291.83, 83.94,1014.4,N,  0.00, 90.00,296.62, 73.76, 69.83, 58.26, 36.16, 25.00,
   183,10/06/05 03:03:14,11,291.94, 84.21,1014.1,N,  0.00, 90.00,296.63, 73.22, 70.65, 57.98, 35.61, 24.29,
   184,10/06/05 03:04:14,11,291.92, 84.12,1014.5,N,  0.00, 90.00,296.63, 73.27, 69.45, 57.34, 35.25, 24.03,
   185,10/06/05 03:05:14,11,292.01, 83.81,1014.1,N,  0.00, 90.00,296.63, 73.65, 70.76, 58.48, 36.46, 24.87,
   186,10/06/05 03:06:14,11,291.91, 84.96,1014.5,N,  0.00, 90.00,296.63, 73.01, 69.44, 57.56, 35.40, 24.38,
   187,10/06/05 03:07:14,11,292.00, 84.34,1014.4,N,  0.00, 90.00,296.64, 74.02, 70.05, 58.55, 36.41, 25.71,
   188,10/06/05 03:08:14,11,292.01, 84.35,1014.4,N,  0.00, 90.00,296.64, 73.46, 69.34, 57.47, 35.18, 23.10,
   189,10/06/05 03:09:14,11,291.97, 84.47,1014.6,N,  0.00, 90.00,296.65, 73.29, 69.78, 57.39, 35.43, 24.56,
   190,10/06/05 03:10:14,11,292.04, 84.84,1014.5,N,  0.00, 90.00,296.64, 73.03, 69.15, 57.46, 35.31, 23.86,
   191,10/06/05 03:11:14,11,291.94, 83.78,1014.5,N,  0.00, 90.00,296.64, 73.56, 69.32, 57.10, 35.10, 23.17,
   192,10/06/05 03:12:14,11,292.00, 85.02,1014.6,N,  0.00, 90.00,296.64, 72.77, 69.02, 56.99, 34.65, 24.00,
   193,10/06/05 03:13:14,11,291.90, 84.80,1014.4,N,  0.00, 90.00,296.64, 72.29, 69.35, 57.04, 34.33, 22.85,
   194,10/06/05 03:14:14,11,292.06, 84.62,1014.5,N,  0.00, 90.00,296.65, 72.43, 68.70, 56.99, 34.80, 23.50,
   195,10/06/05 03:15:14,11,292.03, 84.78,1014.3,N,  0.00, 90.00,296.65, 73.20, 69.52, 57.33, 36.05, 23.91,
   196,10/06/05 03:16:14,11,292.05, 82.13,1014.4,N,  0.00, 90.00,296.64, 73.03, 69.36, 56.92, 34.91, 23.71,
   197,10/06/05 03:17:14,11,292.06, 83.92,1014.5,N,  0.00, 90.00,296.64, 73.03, 69.51, 57.77, 35.14, 24.62,
   198,10/06/05 03:18:14,11,292.05, 84.75,1014.4,N,  0.00, 90.00,296.67, 72.89, 69.64, 57.41, 35.32, 24.07,
   199,10/06/05 03:19:14,11,291.97, 84.37,1014.3,N,  0.00, 90.00,296.64, 73.31, 69.40, 57.55, 35.18, 23.88,
   200,10/06/05 03:20:14,11,291.98, 84.17,1014.5,N,  0.00, 90.00,296.65, 73.31, 69.58, 57.34, 36.11, 24.67,
   201,10/06/05 03:21:14,11,292.09, 83.43,1014.7,N,  0.00, 90.00,296.66, 72.93, 69.02, 56.73, 35.06, 22.94,
   202,10/06/05 03:22:14,11,292.05, 84.84,1014.5,N,  0.00, 90.00,296.66, 73.21, 69.12, 57.90, 35.25, 24.03,
   203,10/06/05 03:23:14,11,291.98, 87.02,1014.3,N,  0.00, 90.00,296.66, 74.28, 70.88, 58.60, 36.20, 24.50,
   204,10/06/05 03:24:13,11,291.84, 86.35,1014.3,N,  0.00, 90.00,296.64, 74.37, 70.96, 58.54, 37.39, 25.66,
   205,10/06/05 03:25:14,11,291.84, 85.98,1014.8,N,  0.00, 90.00,296.67, 73.53, 70.33, 58.30, 36.55, 25.08,
   206,10/06/05 03:26:14,11,291.94, 86.07,1014.6,N,  0.00, 90.00,296.66, 76.90, 73.93, 62.01, 41.01, 32.74,
   207,10/06/05 03:27:14,11,291.96, 85.95,1014.5,N,  0.00, 90.00,296.66, 77.18, 73.68, 61.32, 41.12, 30.21,
   208,10/06/05 03:28:14,11,291.93, 85.44,1014.5,N,  0.00, 90.00,296.65, 74.08, 70.42, 58.54, 36.28, 25.72,
   209,10/06/05 03:29:14,11,291.95, 85.79,1014.6,N,  0.00, 90.00,296.65, 73.56, 70.13, 57.84, 36.14, 24.14,
   210,10/06/05 03:30:14,11,292.00, 85.34,1014.8,N,  0.00, 90.00,296.65, 73.78, 70.27, 57.79, 36.15, 25.00,
   211,10/06/05 03:31:14,11,291.88, 85.90,1014.6,N,  0.00, 90.00,296.64, 73.74, 69.61, 57.77, 35.78, 24.45,
   212,10/06/05 03:32:14,11,291.79, 85.45,1014.4,N,  0.00, 90.00,296.64, 73.04, 69.29, 57.29, 34.95, 23.55,
   213,10/06/05 03:33:14,11,291.88, 85.43,1014.4,N,  0.00, 90.00,296.63, 73.29, 69.58, 57.46, 35.78, 24.22,
   214,10/06/05 03:34:14,11,291.63, 85.34,1014.7,N,  0.00, 90.00,296.62, 72.68, 69.11, 57.29, 34.44, 23.88,
   215,10/06/05 03:35:14,11,291.75, 84.61,1014.7,N,  0.00, 90.00,296.62, 72.86, 68.66, 56.86, 34.72, 24.19,
   216,10/06/05 03:36:14,11,291.82, 85.49,1014.6,N,  0.00, 90.00,296.62, 72.68, 69.37, 56.67, 34.67, 23.85,
   217,10/06/05 03:37:14,11,291.80, 84.91,1014.9,N,  0.00, 90.00,296.62, 73.70, 69.69, 58.15, 36.07, 25.50,
   218,10/06/05 03:38:14,11,291.72, 84.54,1014.9,N,  0.00, 90.00,296.61, 73.86, 70.32, 58.56, 36.72, 25.18,
   219,10/06/05 03:39:14,11,291.82, 84.82,1015.0,N,  0.00, 90.00,296.59, 74.36, 70.43, 58.85, 37.70, 26.71,